Weather History for K2WX - May, 2014

Change the Weather History Date:

Thursday, May 1, 2014

  Actual Average Record
Temperature  
Mean Temperature 49 °F 49 °F  
Max Temperature 61 °F 61 °F - ()
Min Temperature 36 °F 36 °F - ()
Degree Days  
Heating Degree Days 16 16  
Month to date heating degree days 16 16  
Since 1 July heating degree days 7877 7469  
Cooling Degree Days 0 0  
Month to date cooling degree days 0 0  
Year to date cooling degree days 0 0  
Moisture  
Dew Point 30 °F    
Average Humidity 54    
Maximum Humidity 82    
Minimum Humidity 25    
Precipitation  
Precipitation 0.00 in 0.05 in - ()
Month to date precipitation 0.00 0.05  
Year to date precipitation 2.68 2.94  
Sea Level Pressure  
Sea Level Pressure 30.06 in    
Wind  
Wind Speed 17 mph (NW)    
Max Wind Speed 30 mph    
Max Gust Speed 36 mph    
T = Trace of Precipitation, MM = Missing Value Source: NWS Daily Summary

Daily Weather History Graph

Daily Weather History Graph

Search for Another Location

Airport or City:

Trip Planner

Search our weather history database for the weather conditions in past years. The results will help you decide how hot, cold, wet, or windy it might be!

Date:

Astronomy

May. 01, 2014 Rise Set
Actual Time 5:41 AM MDT 8:01 PM MDT
Civil Twilight 5:09 AM MDT 8:34 PM MDT
Nautical Twilight 4:28 AM MDT 9:15 PM MDT
Astronomical Twilight 3:42 AM MDT 10:01 PM MDT
Moon 7:28 AM MDT (5/1) 10:39 PM MDT (5/1)
Length of Visible Light 15h 25m
Length of Day
14h 19m
Waxing Crescent, 7% of the Moon is Illuminated
May 1
Waxing Crescent
May 6
First Quarter
May 14
Full
May 21
Last Quarter
May 28
New

Hourly Weather History & Observations

Time (MDT) Temp. Windchill Dew Point Humidity Pressure Visibility Wind Dir Wind Speed Gust Speed Precip Events Conditions
12:56 AM 39.9 °F 31.4 °F 32.0 °F 73% 30.17 in - NNW 16.1 mph - N/A   Unknown
1:56 AM 37.0 °F 28.5 °F 30.9 °F 79% 30.16 in - NW 13.8 mph - N/A   Unknown
2:56 AM 37.0 °F 28.9 °F 30.9 °F 79% 30.14 in - NW 12.7 mph - N/A   Unknown
3:56 AM 39.0 °F 29.3 °F 32.0 °F 76% 30.13 in - NNW 19.6 mph - N/A   Unknown
4:56 AM 37.9 °F 28.5 °F 30.9 °F 76% 30.14 in - NNW 17.3 mph - N/A   Unknown
5:56 AM 36.0 °F 26.0 °F 30.0 °F 79% 30.15 in - NNW 17.3 mph - N/A   Unknown
6:56 AM 37.9 °F 28.2 °F 30.0 °F 73% 30.14 in - NNW 18.4 mph - N/A   Unknown
7:56 AM 42.1 °F 32.8 °F 30.9 °F 65% 30.14 in - NNW 21.9 mph - N/A   Unknown
8:56 AM 46.9 °F - 30.9 °F 54% 30.14 in - NW 19.6 mph - N/A   Unknown
9:56 AM 50.0 °F - 28.9 °F 44% 30.12 in - NNW 25.3 mph 34.5 mph N/A   Unknown
10:56 AM 52.0 °F - 28.0 °F 40% 30.13 in - NW 26.5 mph 33.4 mph N/A   Unknown
11:56 AM 53.1 °F - 27.0 °F 37% 30.11 in - NNW 26.5 mph 32.2 mph N/A   Unknown
12:56 PM 55.0 °F - 27.0 °F 34% 30.08 in - NNW 19.6 mph 28.8 mph N/A   Unknown
1:56 PM 57.9 °F - 28.0 °F 32% 30.06 in - NW 20.7 mph 32.2 mph N/A   Unknown
2:56 PM 59.0 °F - 27.0 °F 29% 30.05 in - WNW 17.3 mph - N/A   Unknown
3:56 PM 60.1 °F - 25.0 °F 26% 30.01 in - NNW 21.9 mph 29.9 mph N/A   Unknown
4:56 PM 60.1 °F - 27.0 °F 28% 30.00 in - NW 18.4 mph 25.3 mph N/A   Unknown
5:56 PM 60.1 °F - 27.0 °F 28% 29.99 in - NW 15.0 mph - N/A   Unknown
6:56 PM 57.0 °F - 28.0 °F 33% 29.97 in - NW 12.7 mph - N/A   Unknown
7:56 PM 53.1 °F - 30.9 °F 43% 29.97 in - WNW 10.4 mph - N/A   Unknown
8:56 PM 48.0 °F - 32.0 °F 54% 29.96 in - WNW 9.2 mph - N/A   Unknown
9:56 PM 46.0 °F 41.9 °F 33.1 °F 61% 29.94 in - WSW 8.1 mph - N/A   Unknown
10:56 PM 45.0 °F 40.1 °F 34.0 °F 65% 29.91 in - WSW 9.2 mph - N/A   Unknown
11:56 PM 46.9 °F - 35.1 °F 63% 29.88 in - West 9.2 mph - N/A   Unknown